Location: Borojevi?i
(45.0486°N, 16.2297°E)
Time: 15:26:58
(UTC+00:00)

Cosmos 540 Rocket - Pass Details

Date: 08 August 2020
Orbit: 740 x 754 km, 74.1° (Epoch: 24 September)

Event Time Altitude Azimuth Distance (km) Brightness Sun altitude
Rises 21:35:42 0° 339° (NNW) 3,210 8.1 -26.2°
Reaches altitude 10° 21:38:05 10° 339° (NNW) 2,283 7.0 -26.3°
Enters shadow 21:43:11 86° 24° (NNE) 761 3.4 -26.7°
